Regional Weather Roundup
Issued by NWS

Home | Current Version | Previous Version | Text Only | Print | Product List | Glossary Off
Versions: 1 2 3 4 5 6 7 8 9 10 11 12 13 14 15 16 17 18 19 20 21 22 23 24 25 26 27 28 29 30 31 32 33 34 35 36 37 38 39 40 41 42 43 44 45 46 47 48 49 50

000
ASUS45 KSLC 271610
RWRUT

UTAH REGIONAL WEATHER ROUNDUP
NATIONAL WEATHER SERVICE SALT LAKE CITY UT
1000 AM MDT THU AUG 27 2015

UTZ001>011-023>025-271700-

NORTHERN UTAH

CITY           SKY/WX    TMP DP  RH WIND       PRES   REMARKS
BRIGHAM CITY   SUNNY     70  59  66 CALM      30.27R
HILL AFB       MOSUNNY   72  57  60 E9        30.28R
LOGAN          SUNNY     67  57  70 E3        30.27S
OGDEN          SUNNY     73  57  57 VRB3      30.26R
PROVO AIRPORT  MOSUNNY   70  54  56 SW3       30.28S
SALT LAKE CITY MOSUNNY   74  55  51 S7        30.24S
VERNAL         MOSUNNY   67  58  72 CALM      30.28R
WENDOVER       SUNNY     72  50  46 E6        30.25S
HEBER CITY     CLOUDY    61  54  77 N3        30.36R
WEST JORDAN    SUNNY     73  54  49 S9        30.28S

$$

UTZ012>022-026-027-271700-

SOUTHERN/CENTRAL UTAH

CITY           SKY/WX    TMP DP  RH WIND       PRES   REMARKS
BLANDING       PTSUNNY   67  57  69 CALM      30.43S
BRYCE CANYON   SUNNY     64  52  64 N5        30.47S
CEDAR CITY     SUNNY     66  56  70 CALM      30.34S
DELTA          SUNNY     70  53  54 CALM      30.29R
HANKSVILLE     SUNNY     68  63  83 CALM      30.29R
MILFORD        SUNNY     70  56  61 S12       30.31R
MOAB/CYNLANDS  CLOUDY    70  64  81 NW7       30.25R
PRICE          SUNNY     65  58  78 S5        30.33R
ST GEORGE      SUNNY     75  57  53 CALM      30.22S
KANAB          SUNNY     70  61  73 CALM      30.38S

$$

REGIONAL REPORTS     COLORADO/ARIZONA

CITY           SKY/WX    TMP DP  RH WIND       PRES   REMARKS
CRAIG, CO      CLOUDY    63  57  81 W10       30.32S
GRAND JUNCTION CLOUDY    64  62  93 E7        30.27S
RIFLE          LGT RAIN  64  59  83 CALM      30.31R
MONTROSE       CLOUDY    65  59  81 CALM      30.34S
CORTEZ         PTSUNNY   65  57  75 CALM      30.36S
PAGE, AZ       SUNNY     73  59  61 N5        30.27S
GRAND CANYON   SUNNY     70  53  54 SW6       30.42S
KINGMAN        SUNNY     82  59  45 NE3       30.19S
FLAGSTAFF      SUNNY     70  53  54 VRB3      30.44S

$$

REGIONAL REPORTS    NEVADA/IDAHO/WYOMING

CITY           SKY/WX    TMP DP  RH WIND       PRES   REMARKS
LAS VEGAS, NV  MOSUNNY   88  56  33 NE8       30.07R
ELY            SUNNY     62  51  67 S6        30.39R
ELKO           SUNNY     67  46  47 CALM      30.30S
POCATELLO, ID  SUNNY     72  54  53 NE5       30.24S
BURLEY         MOSUNNY   69  52  54 CALM      30.21R
EVANSTON, WY   PTSUNNY   57  56  96 SW8       30.41R
ROCK SPRINGS   PTSUNNY   59  54  83 W20       30.35R
KEMMERER       PTSUNNY   59  52  77 SW12      30.41S

$$


USA.gov is the U.S. government's official web portal to all federal, state and local government web resources and services.